Regional Weather Roundup
Issued by NWS Jackson, KY

Home | Current Version | Previous Version | Graphics & Text | Print | Product List | Glossary On
Versions: 1 2 3 4 5 6 7 8 9 10 11 12 13 14 15 16 17 18 19 20 21 22 23 24 25 26 27 28 29 30 31 32 33 34 35 36 37 38 39 40 41 42 43 44 45 46 47 48 49 50
000
ASUS43 KJKL 271710
RWRJKL

EAST KENTUCKY HOURLY WEATHER ROUNDUP
NATIONAL WEATHER SERVICE JACKSON KY
100 PM EDT SAT MAY 27 2017

NOTE: "FAIR" INDICATES FEW OR NO CLOUDS BELOW 12,000 FEET WITH
NO SIGNIFICANT WEATHER AND/OR OBSTRUCTIONS TO VISIBILITY.

* THESE REPORTS ARE NOT UNDER NWS QUALITY CONTROL AND MAY NOT
  REPORT WEATHER SUCH AS PRECIPITATION AND FOG.

KYZ079-080-083-085-087-088-110-112-115-119-120-271800
...EASTERN KENTUCKY...

CITY           SKY/WX    TMP DP  RH WIND       PRES   REMARKS
JACKSON        CLOUDY    74  66  76 CALM      29.96S
LONDON         PTSUNNY   75  64  68 SW12      29.96F
SOMERSET*      CLOUDY    73  64  73 SW5       29.96F
MONTICELLO*    CLOUDY    78  68  71 W15       29.97F
WILLIAMSBURG*  PTSUNNY   77  68  73 SW6       29.98S
MIDDLESBORO*   CLOUDY    77  66  68 S5        29.99F
HARLAN APT*    CLOUDY    75  63  64 SW3       29.99F
PIKE CO APT*   PTSUNNY   74  67  79 CALM      29.96F
BIG SANDY APT* CLOUDY    76  66  72 SW7       29.95S
MOREHEAD APT*  CLOUDY    77  66  69 SW8G15    29.93F
ASHLAND*       CLOUDY    81  70  69 W10       29.88S
$$

KYZ035-036-041-042-044-050-067-078-099-271800
...CENTRAL KENTUCKY...

CITY           SKY/WX    TMP DP  RH WIND       PRES   REMARKS
MT STERLING*   CLOUDY    77  68  73 SW8       29.93S
FLEMING/MASON* CLOUDY    79  68  69 SW9       29.92S
DANVILLE*      PTSUNNY   79  68  69 SW9       29.93F
LEXINGTON      CLOUDY    78  68  71 W9        29.92F
FRANKFORT      PTSUNNY   79  68  69 S6        29.89F
LOUISVILLE     MOSUNNY   80  70  71 S5        29.88F
LEBANON*         N/A     81  68  65 S7        29.91F
GLASGOW*       SUNNY     80  68  66 S5        29.90F
BOWLING GREEN  PTSUNNY   81  71  71 SW15G22   29.93R
$$

KYZ091>093-OHZ055-061-077-WVZ005-015-034-035-042-271800
...SOUTHERN OHIO/WEST VIRGINIA...

CITY           SKY/WX    TMP DP  RH WIND       PRES   REMARKS
COVINGTON      PTSUNNY   77  68  73 SW8       29.89S
COLUMBUS       CLOUDY    75  65  70 VRB3      29.88R
DAYTON         CLOUDY    74  66  76 W7        29.90R
WILMINGTON     PTSUNNY   77  70  79 W9        29.88S
HUNTINGTON     CLOUDY    78  66  66 SW6       29.91S
CHARLESTON     CLOUDY    76  64  66 SW13      29.91S
PINEVILLE*     CLOUDY    76  64  65 MISG      30.02F
BECKLEY        CLOUDY    72  61  68 W13G21    30.00S
BLUEFIELD      CLOUDY    70  60  70 W12       30.03S
LOGAN CO APT*  CLOUDY    75  66  73 VRB3      29.95F
$$

VAZ002-007-008-TNZ017-027-036-066-071-271800
...SOUTHWEST VIRGINIA/EAST TENNESSEE...

CITY           SKY/WX    TMP DP  RH WIND       PRES   REMARKS
WISE*          CLOUDY    72  61  68 CALM      30.05S
JONESVILLE*      N/A     77  64  65 SW9       30.01F
ABINGDON*      CLOUDY    76  65  70 W8        30.03S
BRISTOL        PTSUNNY   77  65  66 W9        30.00F
MORRISTOWN*    PTSUNNY   79  66  65 W14G21    30.00S
SEVIERVILLE*   MOSUNNY   79  64  61 SW10      30.00S
KNOXVILLE      CLOUDY    77  65  66 SW14      29.99F
LAFOLLETTE*    MOSUNNY   79  68  69 S6        29.99F
OAK RIDGE      MOSUNNY   79  65  62 VRB6      29.99F
CROSSVILLE     CLOUDY    72  65  78 S7        30.00F
NASHVILLE      CLOUDY    82  69  64 SW5G17    29.95R
$$

...KEY TO REMARKS...
VSB - VISIBILITY IN MILES
WCI - WIND CHILL INDEX
HX  - HEAT INDEX

$$



USA.gov is the U.S. government's official web portal to all federal, state and local government web resources and services.